Time,TemperatureF,DewpointF,PressureIn,WindDirection,WindDirectionDegrees,WindSpeedMPH,WindSpeedGustMPH,Humidity,HourlyPrecipIn,Conditions,Clouds,dailyrainin,SoftwareType,DateUTC
2013-04-22 00:14:00,35.6,21.0,30.55,East,81,5.0,9.0,55,0.00,,,0.00,weatherlink.com 1.10,2013-04-22 04:14:00,
2013-04-22 00:29:00,35.5,21.0,30.54,East,100,6.0,7.0,56,0.00,,,0.00,weatherlink.com 1.10,2013-04-22 04:29:00,
2013-04-22 00:44:00,35.4,21.0,30.54,ENE,72,2.0,7.0,56,0.00,,,0.00,weatherlink.com 1.10,2013-04-22 04:44:00,
2013-04-22 00:59:00,35.2,21.0,30.54,East,89,3.0,8.0,57,0.00,,,0.00,weatherlink.com 1.10,2013-04-22 04:59:00,
2013-04-22 01:14:00,35.1,21.0,30.54,ENE,77,4.0,6.0,58,0.00,,,0.00,weatherlink.com 1.10,2013-04-22 05:14:00,
2013-04-22 01:29:00,35.0,22.0,30.54,East,88,3.0,6.0,59,0.00,,,0.00,weatherlink.com 1.10,2013-04-22 05:29:00,
2013-04-22 01:44:00,34.8,22.0,30.53,ESE,118,2.0,7.0,59,0.00,,,0.00,weatherlink.com 1.10,2013-04-22 05:44:00,
2013-04-22 01:59:00,34.6,22.0,30.53,East,91,4.0,7.0,60,0.00,,,0.00,weatherlink.com 1.10,2013-04-22 05:59:00,
2013-04-22 02:14:00,34.5,22.0,30.52,ENE,72,3.0,6.0,61,0.00,,,0.00,weatherlink.com 1.10,2013-04-22 06:14:00,
2013-04-22 02:29:00,34.3,22.0,30.52,East,86,3.0,5.0,62,0.00,,,0.00,weatherlink.com 1.10,2013-04-22 06:29:00,
2013-04-22 02:44:00,34.2,23.0,30.52,ENE,72,4.0,6.0,63,0.00,,,0.00,weatherlink.com 1.10,2013-04-22 06:44:00,
2013-04-22 02:59:00,34.0,23.0,30.52,East,84,3.0,5.0,64,0.00,,,0.00,weatherlink.com 1.10,2013-04-22 06:59:00,
2013-04-22 03:14:00,33.8,23.0,30.51,East,82,3.0,5.0,65,0.00,,,0.00,weatherlink.com 1.10,2013-04-22 07:14:00,
2013-04-22 03:29:00,33.7,23.0,30.51,East,91,2.0,5.0,66,0.00,,,0.00,weatherlink.com 1.10,2013-04-22 07:29:00,
2013-04-22 03:44:00,33.6,24.0,30.51,ENE,77,5.0,5.0,67,0.00,,,0.00,weatherlink.com 1.10,2013-04-22 07:44:00,
2013-04-22 03:59:00,33.9,24.0,30.51,East,89,3.0,5.0,67,0.00,,,0.00,weatherlink.com 1.10,2013-04-22 07:59:00,
2013-04-22 04:15:00,34.0,24.0,30.51,East,86,3.0,4.0,68,0.00,,,0.00,weatherlink.com 1.10,2013-04-22 08:15:00,
2013-04-22 04:30:00,34.2,25.0,30.51,East,85,2.0,5.0,68,0.00,,,0.00,weatherlink.com 1.10,2013-04-22 08:30:00,
2013-04-22 04:45:00,34.1,25.0,30.51,East,90,2.0,4.0,68,0.00,,,0.00,weatherlink.com 1.10,2013-04-22 08:45:00,
2013-04-22 05:00:00,34.1,25.0,30.50,East,82,1.0,4.0,69,0.00,,,0.00,weatherlink.com 1.10,2013-04-22 09:00:00,
2013-04-22 05:15:00,34.4,25.0,30.50,East,98,1.0,5.0,69,0.00,,,0.00,weatherlink.com 1.10,2013-04-22 09:15:00,
2013-04-22 05:30:00,34.7,25.0,30.51,ESE,104,2.0,5.0,68,0.00,,,0.00,weatherlink.com 1.10,2013-04-22 09:30:00,
2013-04-22 05:45:00,34.7,25.0,30.51,ESE,104,3.0,6.0,68,0.00,,,0.00,weatherlink.com 1.10,2013-04-22 09:45:00,
2013-04-22 06:00:00,34.3,25.0,30.51,East,94,3.0,4.0,69,0.00,,,0.00,weatherlink.com 1.10,2013-04-22 10:00:00,
2013-04-22 06:15:00,34.2,25.0,30.51,ESE,115,1.0,5.0,69,0.00,,,0.00,weatherlink.com 1.10,2013-04-22 10:15:00,
2013-04-22 06:30:00,34.2,25.0,30.51,East,94,3.0,5.0,69,0.00,,,0.00,weatherlink.com 1.10,2013-04-22 10:30:00,
2013-04-22 06:45:00,34.2,25.0,30.51,ESE,106,3.0,5.0,69,0.00,,,0.00,weatherlink.com 1.10,2013-04-22 10:45:00,
2013-04-22 07:00:00,34.7,25.0,30.51,ESE,102,3.0,5.0,69,0.00,,,0.00,weatherlink.com 1.10,2013-04-22 11:00:00,
2013-04-22 07:15:00,35.6,26.0,30.51,ESE,115,4.0,5.0,67,0.00,,,0.00,weatherlink.com 1.10,2013-04-22 11:15:00,
2013-04-22 07:30:00,36.9,26.0,30.51,ESE,122,4.0,6.0,65,0.00,,,0.00,weatherlink.com 1.10,2013-04-22 11:30:00,
2013-04-22 07:45:00,39.2,27.0,30.51,ESE,107,2.0,7.0,61,0.00,,,0.00,weatherlink.com 1.10,2013-04-22 11:45:00,
2013-04-22 08:00:00,41.3,27.0,30.51,East,84,5.0,8.0,57,0.00,,,0.00,weatherlink.com 1.10,2013-04-22 12:00:00,
2013-04-22 08:15:00,42.7,27.0,30.51,East,94,9.0,11.0,54,0.00,,,0.00,weatherlink.com 1.10,2013-04-22 12:15:00,
2013-04-22 08:30:00,44.0,26.0,30.51,SE,143,4.0,12.0,50,0.00,,,0.00,weatherlink.com 1.10,2013-04-22 12:30:00,
2013-04-22 08:45:00,45.1,27.0,30.50,ESE,103,14.0,14.0,49,0.00,,,0.00,weatherlink.com 1.10,2013-04-22 12:45:00,
2013-04-22 09:00:00,45.4,27.0,30.50,ESE,118,7.0,14.0,49,0.00,,,0.00,weatherlink.com 1.10,2013-04-22 13:00:00,
2013-04-22 09:15:00,46.2,28.0,30.50,SSE,147,7.0,11.0,49,0.00,,,0.00,weatherlink.com 1.10,2013-04-22 13:15:00,
2013-04-22 09:30:00,47.0,28.0,30.50,SSE,148,9.0,14.0,48,0.00,,,0.00,weatherlink.com 1.10,2013-04-22 13:30:00,
2013-04-22 09:45:00,47.9,28.0,30.49,SE,131,10.0,12.0,46,0.00,,,0.00,weatherlink.com 1.10,2013-04-22 13:45:00,
2013-04-22 10:00:00,48.7,29.0,30.49,SE,130,6.0,13.0,47,0.00,,,0.00,weatherlink.com 1.10,2013-04-22 14:00:00,
2013-04-22 10:15:00,49.5,28.0,30.49,SSE,168,4.0,11.0,44,0.00,,,0.00,weatherlink.com 1.10,2013-04-22 14:15:00,
2013-04-22 10:30:00,50.1,29.0,30.49,South,184,8.0,13.0,44,0.00,,,0.00,weatherlink.com 1.10,2013-04-22 14:30:00,
2013-04-22 10:45:00,50.3,28.0,30.49,SSE,156,4.0,15.0,42,0.00,,,0.00,weatherlink.com 1.10,2013-04-22 14:45:00,
2013-04-22 11:00:00,50.8,28.0,30.48,SSE,148,12.0,15.0,42,0.00,,,0.00,weatherlink.com 1.10,2013-04-22 15:00:00,
2013-04-22 11:16:00,51.0,28.0,30.48,South,186,10.0,16.0,42,0.00,,,0.00,weatherlink.com 1.10,2013-04-22 15:16:00,
2013-04-22 11:31:00,52.1,29.0,30.48,South,173,8.0,14.0,42,0.00,,,0.00,weatherlink.com 1.10,2013-04-22 15:31:00,
2013-04-22 11:46:00,52.2,30.0,30.47,SE,127,2.0,13.0,42,0.00,,,0.00,weatherlink.com 1.10,2013-04-22 15:46:00,
2013-04-22 12:01:00,53.1,27.0,30.46,South,186,6.0,10.0,37,0.00,,,0.00,weatherlink.com 1.10,2013-04-22 16:01:00,
2013-04-22 12:16:00,53.9,28.0,30.46,East,90,0.0,11.0,37,0.00,,,0.00,weatherlink.com 1.10,2013-04-22 16:16:00,
2013-04-22 12:31:00,54.2,28.0,30.45,SE,141,5.0,12.0,37,0.00,,,0.00,weatherlink.com 1.10,2013-04-22 16:31:00,
2013-04-22 12:46:00,54.3,29.0,30.45,East,98,12.0,12.0,38,0.00,,,0.00,weatherlink.com 1.10,2013-04-22 16:46:00,
2013-04-22 13:01:00,55.6,28.0,30.44,SE,142,5.0,9.0,35,0.00,,,0.00,weatherlink.com 1.10,2013-04-22 17:01:00,
2013-04-22 13:16:00,55.9,25.0,30.43,SW,215,12.0,12.0,31,0.00,,,0.00,weatherlink.com 1.10,2013-04-22 17:16:00,
2013-04-22 13:31:00,55.7,27.0,30.42,West,264,3.0,11.0,33,0.00,,,0.00,weatherlink.com 1.10,2013-04-22 17:31:00,
2013-04-22 13:46:00,56.9,29.0,30.41,SE,129,4.0,8.0,34,0.00,,,0.00,weatherlink.com 1.10,2013-04-22 17:46:00,
2013-04-22 14:01:00,57.3,27.0,30.41,NNE,27,2.0,6.0,32,0.00,,,0.00,weatherlink.com 1.10,2013-04-22 18:01:00,
2013-04-22 14:16:00,57.6,29.0,30.40,SW,224,3.0,10.0,33,0.00,,,0.00,weatherlink.com 1.10,2013-04-22 18:16:00,
2013-04-22 14:31:00,57.8,26.0,30.39,East,89,1.0,9.0,30,0.00,,,0.00,weatherlink.com 1.10,2013-04-22 18:31:00,
2013-04-22 14:46:00,58.6,28.0,30.38,WSW,248,5.0,5.0,31,0.00,,,0.00,weatherlink.com 1.10,2013-04-22 18:46:00,
2013-04-22 15:01:00,59.3,27.0,30.37,North,8,3.0,7.0,29,0.00,,,0.00,weatherlink.com 1.10,2013-04-22 19:01:00,
2013-04-22 15:16:00,59.6,26.0,30.36,SSW,200,7.0,7.0,28,0.00,,,0.00,weatherlink.com 1.10,2013-04-22 19:16:00,
2013-04-22 15:31:00,59.8,26.0,30.35,NNW,331,4.0,7.0,27,0.00,,,0.00,weatherlink.com 1.10,2013-04-22 19:31:00,
2013-04-22 15:47:00,59.8,26.0,30.35,NE,54,3.0,4.0,27,0.00,,,0.00,weatherlink.com 1.10,2013-04-22 19:47:00,
2013-04-22 16:01:00,59.5,27.0,30.34,NNE,27,3.0,7.0,29,0.00,,,0.00,weatherlink.com 1.10,2013-04-22 20:01:00,
2013-04-22 16:17:00,60.1,26.0,30.33,NW,323,2.0,8.0,27,0.00,,,0.00,weatherlink.com 1.10,2013-04-22 20:17:00,
2013-04-22 16:32:00,60.7,27.0,30.32,NNE,20,1.0,6.0,28,0.00,,,0.00,weatherlink.com 1.10,2013-04-22 20:32:00,
2013-04-22 16:47:00,60.9,27.0,30.31,NE,56,1.0,5.0,27,0.00,,,0.00,weatherlink.com 1.10,2013-04-22 20:47:00,
2013-04-22 17:01:00,62.1,28.0,30.31,NW,318,3.0,5.0,27,0.00,,,0.00,weatherlink.com 1.10,2013-04-22 21:01:00,
2013-04-22 17:17:00,62.4,29.0,30.30,ENE,66,5.0,5.0,28,0.00,,,0.00,weatherlink.com 1.10,2013-04-22 21:17:00,
2013-04-22 17:32:00,62.8,28.0,30.30,South,191,2.0,4.0,27,0.00,,,0.00,weatherlink.com 1.10,2013-04-22 21:32:00,
2013-04-22 17:47:00,62.5,28.0,30.29,NNW,338,2.0,4.0,27,0.00,,,0.00,weatherlink.com 1.10,2013-04-22 21:47:00,
2013-04-22 18:02:00,61.7,26.0,30.29,ENE,63,6.0,6.0,26,0.00,,,0.00,weatherlink.com 1.10,2013-04-22 22:02:00,
2013-04-22 18:17:00,61.7,27.0,30.29,East,82,4.0,5.0,27,0.00,,,0.00,weatherlink.com 1.10,2013-04-22 22:17:00,
2013-04-22 18:32:00,61.6,27.0,30.28,NE,53,1.0,4.0,27,0.00,,,0.00,weatherlink.com 1.10,2013-04-22 22:32:00,
2013-04-22 18:47:00,60.3,32.0,30.27,NNE,19,5.0,10.0,34,0.00,,,0.00,weatherlink.com 1.10,2013-04-22 22:47:00,
2013-04-22 19:02:00,59.4,32.0,30.27,NE,36,4.0,11.0,35,0.00,,,0.00,weatherlink.com 1.10,2013-04-22 23:02:00,
2013-04-22 19:17:00,58.8,32.0,30.27,North,349,5.0,10.0,36,0.00,,,0.00,weatherlink.com 1.10,2013-04-22 23:17:00,
2013-04-22 19:32:00,57.9,32.0,30.27,NNE,15,3.0,7.0,38,0.00,,,0.00,weatherlink.com 1.10,2013-04-22 23:32:00,
2013-04-22 19:47:00,56.8,32.0,30.26,NE,34,3.0,6.0,39,0.00,,,0.00,weatherlink.com 1.10,2013-04-22 23:47:00,
2013-04-22 20:02:00,55.6,33.0,30.26,North,352,3.0,5.0,42,0.00,,,0.00,weatherlink.com 1.10,2013-04-23 00:02:00,
2013-04-22 20:18:00,54.4,33.0,30.26,NNE,18,2.0,5.0,45,0.00,,,0.00,weatherlink.com 1.10,2013-04-23 00:18:00,
2013-04-22 20:32:00,53.4,35.0,30.27,NE,37,1.0,4.0,50,0.00,,,0.00,weatherlink.com 1.10,2013-04-23 00:32:00,
2013-04-22 20:47:00,52.3,35.0,30.27,ENE,58,2.0,3.0,53,0.00,,,0.00,weatherlink.com 1.10,2013-04-23 00:47:00,
2013-04-22 21:02:00,51.6,36.0,30.27,ENE,67,2.0,4.0,55,0.00,,,0.00,weatherlink.com 1.10,2013-04-23 01:02:00,
2013-04-22 21:19:00,51.4,35.0,30.27,ENE,65,0.0,3.0,54,0.00,,,0.00,weatherlink.com 1.10,2013-04-23 01:19:00,
2013-04-22 21:32:00,51.4,34.0,30.26,ENE,65,3.0,4.0,51,0.00,,,0.00,weatherlink.com 1.10,2013-04-23 01:32:00,
2013-04-22 21:49:00,51.9,32.0,30.26,ENE,77,5.0,6.0,47,0.00,,,0.00,weatherlink.com 1.10,2013-04-23 01:49:00,
2013-04-22 22:03:00,52.3,31.0,30.26,ENE,57,4.0,5.0,45,0.00,,,0.00,weatherlink.com 1.10,2013-04-23 02:03:00,
2013-04-22 22:18:00,52.2,30.0,30.26,East,94,5.0,5.0,43,0.00,,,0.00,weatherlink.com 1.10,2013-04-23 02:18:00,
2013-04-22 22:33:00,52.5,30.0,30.26,ENE,74,4.0,7.0,42,0.00,,,0.00,weatherlink.com 1.10,2013-04-23 02:33:00,
2013-04-22 22:48:00,52.4,29.0,30.27,ESE,106,7.0,7.0,41,0.00,,,0.00,weatherlink.com 1.10,2013-04-23 02:48:00,
2013-04-22 23:03:00,51.7,29.0,30.26,ESE,115,3.0,6.0,42,0.00,,,0.00,weatherlink.com 1.10,2013-04-23 03:03:00,
2013-04-22 23:18:00,51.2,29.0,30.27,ESE,115,6.0,7.0,42,0.00,,,0.00,weatherlink.com 1.10,2013-04-23 03:18:00,
2013-04-22 23:33:00,51.1,28.0,30.27,ESE,115,4.0,7.0,41,0.00,,,0.00,weatherlink.com 1.10,2013-04-23 03:33:00,
2013-04-22 23:48:00,50.8,27.0,30.27,ESE,110,5.0,6.0,40,0.00,,,0.00,weatherlink.com 1.10,2013-04-23 03:48:00,